Radiation Dose at Monitoring Post of Fukushima Daini Nuclear Power Station
Date,Time,MP-1(microSv/h),MP-2(microSv/h),MP-3(microSv/h),MP-4(microSv/h),MP-5(microSv/h),MP-6(microSv/h),MP-7(microSv/h),Wind Direction,Wind Velocity(m/s),Rain
2016/12/26,00:00,0.387,0.234,0.399,0.370,0.340,0.192,0.163,southwest,2.8,No
2016/12/26,00:10,0.385,0.235,0.400,0.370,0.338,0.193,0.164,south,1.5,No
2016/12/26,00:20,0.386,0.234,0.400,0.371,0.338,0.192,0.164,south-southeast,1.6,No
2016/12/26,00:30,0.386,0.235,0.399,0.370,0.340,0.192,0.164,south,1.1,No
2016/12/26,00:40,0.387,0.234,0.399,0.370,0.340,0.192,0.164,south-southeast,1.6,No
2016/12/26,00:50,0.387,0.233,0.399,0.371,0.340,0.192,0.164,south-southeast,1.1,No
2016/12/26,01:00,0.387,0.234,0.399,0.371,0.339,0.192,0.163,south-southwest,1.3,No
2016/12/26,01:10,0.386,0.233,0.400,0.370,0.339,0.193,0.164,south-southwest,4.3,No
2016/12/26,01:20,0.387,0.233,0.400,0.371,0.341,0.191,0.164,south-southwest,3.3,No
2016/12/26,01:30,0.388,0.233,0.398,0.369,0.340,0.192,0.165,south,2.2,No
2016/12/26,01:40,0.386,0.233,0.399,0.370,0.339,0.192,0.162,south,2.4,No
2016/12/26,01:50,0.385,0.234,0.399,0.371,0.339,0.192,0.165,south,2.7,No
2016/12/26,02:00,0.386,0.233,0.399,0.372,0.338,0.192,0.165,south,2.9,No
2016/12/26,02:10,0.388,0.234,0.398,0.372,0.339,0.193,0.165,south,2.9,No
2016/12/26,02:20,0.388,0.233,0.398,0.371,0.340,0.193,0.163,south-southeast,3.1,No
2016/12/26,02:30,0.387,0.235,0.397,0.373,0.338,0.192,0.164,south-southeast,2.9,No
2016/12/26,02:40,0.387,0.235,0.399,0.372,0.339,0.192,0.164,south-southeast,2.4,No
2016/12/26,02:50,0.387,0.233,0.400,0.373,0.340,0.192,0.163,south-southeast,2.2,No
2016/12/26,03:00,0.387,0.233,0.399,0.371,0.339,0.192,0.164,south-southeast,1.6,No
2016/12/26,03:10,0.386,0.233,0.400,0.371,0.339,0.193,0.164,south,2.2,No
2016/12/26,03:20,0.388,0.235,0.399,0.371,0.339,0.192,0.164,south,3.3,No
2016/12/26,03:30,0.387,0.234,0.400,0.370,0.341,0.192,0.164,south,3.4,No
2016/12/26,03:40,0.387,0.235,0.400,0.371,0.341,0.193,0.164,south,3.7,No
2016/12/26,03:50,0.389,0.235,0.400,0.370,0.339,0.193,0.165,south-southeast,2.5,No
2016/12/26,04:00,0.386,0.233,0.400,0.370,0.340,0.192,0.165,south-southwest,3.2,No
2016/12/26,04:10,0.387,0.233,0.400,0.371,0.339,0.192,0.164,south-southwest,4.8,No
2016/12/26,04:20,0.387,0.233,0.401,0.372,0.340,0.193,0.164,south-southwest,4.5,No
2016/12/26,04:30,0.387,0.236,0.399,0.371,0.339,0.192,0.165,south-southwest,4.2,No
2016/12/26,04:40,0.387,0.235,0.400,0.370,0.340,0.192,0.164,south-southwest,4.2,No
2016/12/26,04:50,0.386,0.233,0.400,0.371,0.340,0.193,0.164,south-southwest,4.5,No
2016/12/26,05:00,0.386,0.233,0.399,0.372,0.339,0.194,0.164,southwest,4.9,No
2016/12/26,05:10,0.386,0.233,0.399,0.371,0.339,0.192,0.164,southwest,5.8,No
2016/12/26,05:20,0.386,0.236,0.399,0.369,0.339,0.192,0.165,southwest,6.5,No
2016/12/26,05:30,0.386,0.234,0.399,0.369,0.339,0.192,0.165,southwest,6.7,No
2016/12/26,05:40,0.386,0.234,0.399,0.371,0.340,0.191,0.165,south-southwest,6.3,No
2016/12/26,05:50,0.385,0.235,0.400,0.372,0.340,0.193,0.164,south-southwest,5.4,No
2016/12/26,06:00,0.387,0.233,0.400,0.370,0.339,0.193,0.165,south-southwest,5.5,No
2016/12/26,06:10,0.387,0.233,0.400,0.369,0.339,0.192,0.164,south-southwest,5.4,No
2016/12/26,06:20,0.386,0.233,0.398,0.369,0.339,0.192,0.163,south-southwest,5.8,No
2016/12/26,06:30,0.385,0.234,0.399,0.371,0.339,0.192,0.164,south-southwest,5.3,No
2016/12/26,06:40,0.386,0.234,0.399,0.371,0.339,0.192,0.164,south-southwest,4.8,No
2016/12/26,06:50,0.387,0.234,0.400,0.370,0.340,0.192,0.164,south-southwest,4.5,No
2016/12/26,07:00,0.387,0.233,0.399,0.370,0.340,0.192,0.163,south-southwest,4.8,No
2016/12/26,07:10,0.386,0.234,0.397,0.370,0.339,0.193,0.165,south-southwest,3.1,No
2016/12/26,07:20,0.387,0.233,0.398,0.370,0.339,0.193,0.164,south-southwest,2.5,No
2016/12/26,07:30,0.387,0.233,0.399,0.370,0.340,0.192,0.165,south-southwest,3.9,No
2016/12/26,07:40,0.386,0.235,0.399,0.370,0.340,0.192,0.165,south-southwest,5.0,No
2016/12/26,07:50,0.386,0.233,0.399,0.370,0.339,0.192,0.164,southwest,5.3,No
2016/12/26,08:00,0.385,0.235,0.398,0.369,0.340,0.192,0.164,south-southwest,6.2,No
2016/12/26,08:10,0.388,0.234,0.400,0.370,0.340,0.193,0.164,south-southwest,6.8,No
2016/12/26,08:20,0.386,0.233,0.399,0.370,0.339,0.191,0.164,south-southwest,8.1,No
2016/12/26,08:30,0.385,0.233,0.397,0.371,0.340,0.192,0.163,south-southwest,7.8,No
2016/12/26,08:40,0.385,0.233,0.399,0.369,0.339,0.191,0.165,south-southwest,7.8,No
2016/12/26,08:50,0.386,0.234,0.400,0.370,0.342,0.192,0.164,south-southwest,8.8,No
2016/12/26,09:00,0.385,0.233,0.398,0.370,0.339,0.192,0.164,south-southwest,6.7,No
2016/12/26,09:10,0.386,0.234,0.399,0.369,0.338,0.192,0.164,south-southwest,6.9,No
2016/12/26,09:20,0.387,0.235,0.400,0.369,0.342,0.192,0.164,south-southwest,6.9,No
2016/12/26,09:30,0.385,0.235,0.398,0.369,0.338,0.192,0.165,south-southwest,6.0,No
2016/12/26,09:40,0.386,0.233,0.397,0.369,0.341,0.193,0.164,south,4.5,No
2016/12/26,09:50,0.386,0.233,0.401,0.370,0.340,0.191,0.164,south-southwest,4.8,No
2016/12/26,10:00,0.384,0.235,0.398,0.371,0.337,0.192,0.163,south-southwest,2.0,No
2016/12/26,10:10,0.385,0.234,0.398,0.369,0.341,0.192,0.164,south-southwest,2.2,No
2016/12/26,10:20,0.384,0.234,0.399,0.369,0.338,0.191,0.163,south-southwest,5.3,No
2016/12/26,10:30,0.383,0.233,0.397,0.368,0.338,0.191,0.163,southwest,2.6,No
2016/12/26,10:40,0.384,0.233,0.398,0.368,0.337,0.193,0.163,south-southwest,1.6,No
2016/12/26,10:50,0.386,0.234,0.397,0.370,0.338,0.191,0.163,south,5.1,No
2016/12/26,11:00,0.382,0.233,0.397,0.368,0.341,0.192,0.164,south,5.8,No
2016/12/26,11:10,0.384,0.233,0.398,0.369,0.337,0.193,0.164,south,2.3,No
2016/12/26,11:20,0.386,0.233,0.397,0.369,0.340,0.192,0.163,south,3.7,No
2016/12/26,11:30,0.385,0.234,0.400,0.372,0.338,0.192,0.164,south,4.9,No
2016/12/26,11:40,0.384,0.234,0.397,0.370,0.341,0.193,0.164,south,5.9,No
2016/12/26,11:50,0.383,0.235,0.399,0.369,0.341,0.192,0.165,south,6.2,No
2016/12/26,12:00,0.385,0.232,0.398,0.371,0.339,0.192,0.166,south,5.2,No
2016/12/26,12:10,0.384,0.235,0.396,0.369,0.340,0.192,0.164,south,7.1,No
2016/12/26,12:20,0.385,0.234,0.399,0.372,0.338,0.192,0.164,south-southeast,7.9,No
2016/12/26,12:30,0.386,0.234,0.397,0.371,0.340,0.193,0.164,south,4.8,No
2016/12/26,12:40,0.385,0.234,0.399,0.371,0.340,0.192,0.164,south,5.8,No
2016/12/26,12:50,0.386,0.235,0.399,0.370,0.338,0.192,0.163,south,7.1,No
2016/12/26,13:00,0.385,0.235,0.400,0.369,0.341,0.193,0.163,south,6.0,No
2016/12/26,13:10,0.384,0.235,0.398,0.372,0.339,0.193,0.164,south,8.1,No
2016/12/26,13:20,0.385,0.235,0.396,0.369,0.341,0.193,0.164,south,6.3,No
2016/12/26,13:30,0.384,0.234,0.399,0.371,0.339,0.191,0.164,south,7.6,No
2016/12/26,13:40,0.385,0.234,0.397,0.368,0.339,0.193,0.164,south,7.7,No
2016/12/26,13:50,0.385,0.235,0.398,0.372,0.341,0.192,0.163,south,8.5,No
2016/12/26,14:00,0.385,0.233,0.397,0.370,0.339,0.192,0.165,south,8.3,No
2016/12/26,14:10,0.386,0.234,0.399,0.370,0.341,0.193,0.164,south,6.1,No
2016/12/26,14:20,0.384,0.235,0.397,0.371,0.339,0.192,0.164,south,5.2,No
2016/12/26,14:30,0.386,0.234,0.397,0.369,0.340,0.193,0.164,south,9.6,No
2016/12/26,14:40,0.385,0.235,0.399,0.373,0.340,0.192,0.165,south,9.6,No
2016/12/26,14:50,0.386,0.234,0.398,0.370,0.338,0.192,0.163,south,9.0,No
2016/12/26,15:00,0.386,0.235,0.399,0.371,0.341,0.192,0.163,south,8.6,No
2016/12/26,15:10,0.384,0.234,0.397,0.369,0.339,0.193,0.163,south,8.1,No
2016/12/26,15:20,0.387,0.234,0.397,0.368,0.339,0.193,0.163,south,8.6,No
2016/12/26,15:30,0.385,0.236,0.397,0.370,0.340,0.192,0.164,south,10.1,No
2016/12/26,15:40,0.386,0.234,0.396,0.370,0.339,0.191,0.164,south,8.2,No
2016/12/26,15:50,0.387,0.234,0.400,0.370,0.340,0.193,0.164,south,8.8,No
2016/12/26,16:00,0.386,0.235,0.397,0.370,0.339,0.193,0.164,south,8.6,No
2016/12/26,16:10,0.387,0.236,0.400,0.372,0.340,0.193,0.164,south-southwest,8.8,No
2016/12/26,16:20,0.386,0.235,0.397,0.372,0.340,0.192,0.164,south,8.7,No
2016/12/26,16:30,0.384,0.234,0.399,0.370,0.339,0.192,0.164,south-southwest,8.7,No
2016/12/26,16:40,0.385,0.235,0.400,0.373,0.341,0.192,0.165,south-southwest,9.2,No
2016/12/26,16:50,0.384,0.234,0.398,0.370,0.340,0.192,0.164,south-southwest,9.7,No
2016/12/26,17:00,0.387,0.235,0.400,0.372,0.339,0.192,0.164,south-southwest,7.8,No
2016/12/26,17:10,0.385,0.235,0.397,0.371,0.341,0.192,0.164,south-southwest,8.7,No
2016/12/26,17:20,0.386,0.235,0.397,0.370,0.340,0.192,0.165,south-southwest,8.1,No
2016/12/26,17:30,0.386,0.235,0.398,0.372,0.340,0.191,0.164,southwest,6.1,No
2016/12/26,17:40,0.384,0.235,0.398,0.370,0.339,0.193,0.164,south-southwest,5.5,No
2016/12/26,17:50,0.385,0.235,0.399,0.371,0.340,0.192,0.164,south-southwest,4.5,No
2016/12/26,18:00,0.385,0.234,0.398,0.370,0.339,0.193,0.164,south-southwest,3.9,No
2016/12/26,18:10,0.385,0.235,0.397,0.371,0.341,0.191,0.164,south-southwest,3.2,No
2016/12/26,18:20,0.387,0.234,0.400,0.370,0.340,0.192,0.163,south-southwest,4.2,No
2016/12/26,18:30,0.386,0.235,0.398,0.371,0.341,0.192,0.164,southwest,4.2,No
2016/12/26,18:40,0.384,0.236,0.401,0.371,0.341,0.191,0.165,west-southwest,2.0,No
2016/12/26,18:50,0.387,0.236,0.399,0.370,0.341,0.193,0.164,south-southwest,1.4,No
2016/12/26,19:00,0.386,0.236,0.401,0.373,0.342,0.192,0.165,southwest,2.6,No
2016/12/26,19:10,0.387,0.236,0.399,0.371,0.339,0.192,0.165,southwest,3.3,No
2016/12/26,19:20,0.386,0.235,0.397,0.370,0.341,0.193,0.164,southwest,2.5,No
2016/12/26,19:30,0.385,0.234,0.400,0.372,0.340,0.192,0.165,southwest,1.6,No
2016/12/26,19:40,0.386,0.235,0.398,0.373,0.341,0.193,0.164,south-southwest,1.1,No
2016/12/26,19:50,0.387,0.235,0.398,0.372,0.342,0.192,0.165,south-southwest,2.1,No
2016/12/26,20:00,0.385,0.235,0.402,0.370,0.341,0.193,0.164,south,1.6,No
2016/12/26,20:10,0.386,0.235,0.399,0.371,0.338,0.192,0.165,south,1.5,No
2016/12/26,20:20,0.387,0.235,0.399,0.372,0.342,0.193,0.165,south-southwest,0.5,No
2016/12/26,20:30,0.384,0.235,0.401,0.370,0.340,0.192,0.165,south-southwest,1.0,No
2016/12/26,20:40,0.386,0.236,0.399,0.371,0.342,0.193,0.164,southwest,1.7,No
2016/12/26,20:50,0.387,0.235,0.401,0.373,0.341,0.192,0.165,south-southwest,1.4,No
2016/12/26,21:00,0.387,0.235,0.399,0.370,0.340,0.192,0.165,south-southwest,1.4,No
2016/12/26,21:10,0.384,0.236,0.398,0.373,0.340,0.193,0.164,southwest,4.2,No
2016/12/26,21:20,0.388,0.234,0.399,0.372,0.342,0.192,0.164,southwest,3.0,No
2016/12/26,21:30,0.386,0.236,0.399,0.370,0.339,0.193,0.164,west-southwest,4.5,No
2016/12/26,21:40,0.388,0.236,0.401,0.373,0.341,0.193,0.164,west-southwest,5.6,No
2016/12/26,21:50,0.385,0.235,0.398,0.371,0.340,0.193,0.165,west-southwest,6.1,No
2016/12/26,22:00,0.384,0.234,0.398,0.372,0.340,0.193,0.164,west-southwest,5.3,No
2016/12/26,22:10,0.386,0.237,0.401,0.372,0.342,0.193,0.165,west-southwest,6.7,No
2016/12/26,22:20,0.386,0.236,0.398,0.370,0.339,0.193,0.165,west-southwest,8.1,No
2016/12/26,22:30,0.386,0.237,0.397,0.374,0.342,0.192,0.165,west-southwest,9.0,No
2016/12/26,22:40,0.386,0.236,0.400,0.371,0.342,0.193,0.164,west-southwest,7.7,No
2016/12/26,22:50,0.386,0.235,0.399,0.372,0.340,0.192,0.164,west-southwest,7.4,No
2016/12/26,23:00,0.384,0.235,0.401,0.372,0.343,0.193,0.165,west-southwest,7.0,No
2016/12/26,23:10,0.387,0.237,0.398,0.370,0.340,0.192,0.164,west-southwest,6.4,No
2016/12/26,23:20,0.385,0.234,0.398,0.372,0.341,0.192,0.165,west-southwest,6.2,No
2016/12/26,23:30,0.386,0.236,0.400,0.370,0.340,0.193,0.165,west-southwest,6.7,No
2016/12/26,23:40,0.386,0.235,0.398,0.372,0.339,0.192,0.163,southwest,4.9,No
2016/12/26,23:50,0.384,0.236,0.401,0.372,0.341,0.193,0.165,southwest,3.9,No
